Tiempo cada hora Goias

Hoy, 4 Diciembre, Viernes

Tiempo Temperatura Precipitaciones Viento Presión Humedad
00:00 +23°C° 0 mm 0 mps 707 mmHg 57%
01:00 +22°C° 0 mm 0 mps 707 mmHg 58%
02:00 +22°C° 0 mm 0 mps 707 mmHg 60%
03:00 +21°C° 0 mm 0 mps 707 mmHg 59%
04:00 +21°C° 0 mm 0 mps 707 mmHg 61%
05:00 +21°C° 0 mm 0 mps 708 mmHg 62%
06:00 +23°C° 0 mm 1 mps 708 mmHg 64%
07:00 +25°C° 0 mm 1 mps 709 mmHg 59%
08:00 +28°C° 0 mm 1 mps 709 mmHg 54%
09:00 +30°C° 0 mm 1 mps 710 mmHg 50%
10:00 +32°C° 0 mm 1 mps 710 mmHg 47%
11:00 +33°C° 0 mm 1 mps 710 mmHg 44%
12:00 +35°C° 0 mm 1 mps 710 mmHg 41%
13:00 +35°C° 0 mm 1 mps 709 mmHg 40%
14:00 +35°C° 0 mm 1 mps 709 mmHg 40%
15:00 +33°C° 0 mm 0 mps 708 mmHg 39%
16:00 +32°C° 0 mm 0 mps 707 mmHg 44%
17:00 +31°C° 0 mm 0 mps 707 mmHg 49%
18:00 +29°C° 0 mm 0 mps 706 mmHg 54%
19:00 +30°C° 0 mm 1 mps 707 mmHg 56%
20:00 +28°C° 0 mm 1 mps 707 mmHg 58%
21:00 +27°C° 0 mm 1 mps 707 mmHg 60%
22:00 +26°C° 0 mm 1 mps 707 mmHg 62%
23:00 +26°C° 0 mm 1 mps 707 mmHg 64%

Mañana, 5 Diciembre, Sábado

Tiempo Temperatura Precipitaciones Viento Presión Humedad
00:00 +25°C° 0 mm 1 mps 707 mmHg 66%
01:00 +25°C° 0 mm 1 mps 707 mmHg 67%
02:00 +24°C° 0 mm 1 mps 707 mmHg 68%
03:00 +24°C° 0 mm 1 mps 706 mmHg 69%
04:00 +24°C° 0 mm 1 mps 706 mmHg 70%
05:00 +24°C° 0 mm 1 mps 707 mmHg 72%
06:00 +24°C° 0 mm 1 mps 707 mmHg 73%
07:00 +26°C° 0 mm 1 mps 708 mmHg 66%
08:00 +29°C° 0 mm 1 mps 709 mmHg 59%
09:00 +32°C° 0 mm 1 mps 710 mmHg 53%
10:00 +34°C° 0 mm 1 mps 709 mmHg 48%
11:00 +35°C° 0 mm 1 mps 709 mmHg 43%
12:00 +35°C° 0 mm 0 mps 709 mmHg 39%
13:00 +37°C° 0 mm 1 mps 708 mmHg 40%
14:00 +36°C° 0 mm 1 mps 707 mmHg 41%
15:00 +35°C° 0 mm 1 mps 706 mmHg 42%
16:00 +34°C° 0.5 mm 2 mps 706 mmHg 52%
17:00 +30°C° 0.5 mm 2 mps 705 mmHg 62%
18:00 +28°C° 0.5 mm 3 mps 705 mmHg 72%
19:00 +27°C° 0.6 mm 3 mps 705 mmHg 76%
20:00 +26°C° 0.6 mm 2 mps 706 mmHg 81%
21:00 +25°C° 0.6 mm 2 mps 706 mmHg 85%
22:00 +24°C° 0.3 mm 2 mps 707 mmHg 88%
23:00 +24°C° 0.3 mm 1 mps 707 mmHg 90%

Pasado mañana, 6 Diciembre, Domingo

Tiempo Temperatura Precipitaciones Viento Presión Humedad
00:00 +23°C° 0.3 mm 1 mps 707 mmHg 93%
01:00 +23°C° 0.4 mm 1 mps 706 mmHg 93%
02:00 +23°C° 0.4 mm 1 mps 706 mmHg 92%
03:00 +23°C° 0.4 mm 1 mps 706 mmHg 92%
04:00 +23°C° 0.3 mm 1 mps 706 mmHg 92%
05:00 +23°C° 0.3 mm 1 mps 706 mmHg 93%
06:00 +21°C° 0.3 mm 0 mps 706 mmHg 93%
07:00 +24°C° 0.1 mm 1 mps 707 mmHg 89%
08:00 +25°C° 0.1 mm 1 mps 707 mmHg 86%
09:00 +26°C° 0.1 mm 1 mps 708 mmHg 83%
10:00 +27°C° 0.1 mm 1 mps 708 mmHg 78%
11:00 +28°C° 0.1 mm 1 mps 707 mmHg 73%
12:00 +29°C° 0.1 mm 1 mps 707 mmHg 68%
13:00 +29°C° 0.1 mm 1 mps 707 mmHg 65%
14:00 +30°C° 0.1 mm 1 mps 706 mmHg 62%
15:00 +31°C° 0.1 mm 1 mps 706 mmHg 59%
16:00 +29°C° 0.1 mm 1 mps 705 mmHg 65%
17:00 +28°C° 0.1 mm 1 mps 705 mmHg 70%
18:00 +27°C° 0.1 mm 2 mps 704 mmHg 75%
19:00 +26°C° 0 mm 1 mps 705 mmHg 78%
20:00 +25°C° 0 mm 1 mps 705 mmHg 81%
21:00 +24°C° 0 mm 1 mps 706 mmHg 84%
22:00 +24°C° 0.1 mm 1 mps 706 mmHg 86%
23:00 +24°C° 0.1 mm 1 mps 706 mmHg 88%

7 Diciembre, Lunes

Tiempo Temperatura Precipitaciones Viento Presión Humedad
00:00 +24°C° 0.1 mm 1 mps 706 mmHg 89%
01:00 +24°C° 0.5 mm 1 mps 706 mmHg 91%
02:00 +24°C° 0.5 mm 1 mps 706 mmHg 92%
03:00 +23°C° 0.5 mm 1 mps 706 mmHg 93%
04:00 +23°C° 1.7 mm 1 mps 706 mmHg 94%
05:00 +21°C° 1.7 mm 0 mps 706 mmHg 96%
06:00 +21°C° 1.7 mm 0 mps 707 mmHg 97%
07:00 +21°C° 1.2 mm 0 mps 707 mmHg 96%
08:00 +24°C° 1.2 mm 1 mps 708 mmHg 95%
09:00 +24°C° 1.2 mm 1 mps 708 mmHg 94%
10:00 +25°C° 0.9 mm 1 mps 708 mmHg 92%
11:00 +25°C° 0.9 mm 2 mps 708 mmHg 89%
12:00 +26°C° 0.9 mm 2 mps 708 mmHg 86%
13:00 +26°C° 0.3 mm 2 mps 707 mmHg 84%
14:00 +26°C° 0.3 mm 1 mps 706 mmHg 83%
15:00 +27°C° 0.3 mm 1 mps 706 mmHg 81%
16:00 +24°C° 0.1 mm 0 mps 706 mmHg 83%
17:00 +24°C° 0.1 mm 0 mps 706 mmHg 85%
18:00 +24°C° 0.1 mm 0 mps 706 mmHg 87%
19:00 +23°C° 0.2 mm 0 mps 706 mmHg 88%
20:00 +22°C° 0.2 mm 0 mps 706 mmHg 90%
21:00 +24°C° 0.2 mm 1 mps 707 mmHg 91%
22:00 +23°C° 0.1 mm 1 mps 707 mmHg 92%
23:00 +23°C° 0.1 mm 1 mps 707 mmHg 93%

8 Diciembre, Martes

Tiempo Temperatura Precipitaciones Viento Presión Humedad
00:00 +23°C° 0.1 mm 1 mps 707 mmHg 94%
01:00 +23°C° 2 mm 1 mps 707 mmHg 95%
02:00 +23°C° 2 mm 1 mps 707 mmHg 96%
03:00 +22°C° 2 mm 1 mps 706 mmHg 97%
04:00 +22°C° 0.8 mm 1 mps 707 mmHg 97%
05:00 +21°C° 0.8 mm 0 mps 707 mmHg 97%
06:00 +21°C° 0.8 mm 0 mps 707 mmHg 97%
07:00 +21°C° 0 mm 0 mps 708 mmHg 94%
08:00 +22°C° 0 mm 0 mps 708 mmHg 91%
09:00 +25°C° 0 mm 1 mps 709 mmHg 88%
10:00 +26°C° 0.4 mm 1 mps 708 mmHg 81%
11:00 +28°C° 0.4 mm 1 mps 708 mmHg 74%
12:00 +29°C° 0.4 mm 1 mps 708 mmHg 68%
13:00 +30°C° 0.1 mm 2 mps 707 mmHg 65%
14:00 +30°C° 0.1 mm 3 mps 707 mmHg 62%
15:00 +31°C° 0.1 mm 3 mps 706 mmHg 59%
16:00 +29°C° 0.5 mm 3 mps 706 mmHg 67%
17:00 +28°C° 0.5 mm 2 mps 706 mmHg 76%
18:00 +27°C° 0.5 mm 1 mps 705 mmHg 85%
19:00 +26°C° 0.1 mm 1 mps 706 mmHg 86%
20:00 +23°C° 0.1 mm 0 mps 706 mmHg 87%
21:00 +22°C° 0.1 mm 0 mps 707 mmHg 88%
22:00 +22°C° 0 mm 0 mps 707 mmHg 88%
23:00 +21°C° 0 mm 0 mps 707 mmHg 89%

9 Diciembre, Miércoles

Tiempo Temperatura Precipitaciones Viento Presión Humedad
00:00 +21°C° 0 mm 0 mps 707 mmHg 89%
01:00 +20°C° 0.1 mm 0 mps 706 mmHg 90%
02:00 +20°C° 0.1 mm 0 mps 706 mmHg 91%
03:00 +20°C° 0.1 mm 0 mps 706 mmHg 91%
04:00 +20°C° 0.1 mm 0 mps 706 mmHg 91%
05:00 +20°C° 0.1 mm 0 mps 706 mmHg 92%
06:00 +20°C° 0.1 mm 0 mps 707 mmHg 92%
07:00 +24°C° 0.7 mm 1 mps 707 mmHg 89%
08:00 +25°C° 0.7 mm 2 mps 708 mmHg 86%
09:00 +26°C° 0.7 mm 2 mps 709 mmHg 82%
10:00 +27°C° 2 mm 3 mps 708 mmHg 81%
11:00 +28°C° 2 mm 4 mps 708 mmHg 79%
12:00 +29°C° 2 mm 4 mps 708 mmHg 78%
13:00 +29°C° 0.7 mm 4 mps 707 mmHg 73%
14:00 +30°C° 0.7 mm 4 mps 707 mmHg 68%
15:00 +31°C° 0.7 mm 3 mps 706 mmHg 63%
16:00 +29°C° 0.9 mm 3 mps 706 mmHg 71%
17:00 +28°C° 0.9 mm 3 mps 706 mmHg 78%
18:00 +27°C° 0.9 mm 2 mps 706 mmHg 86%
19:00 +26°C° 1.7 mm 2 mps 706 mmHg 87%
20:00 +25°C° 1.7 mm 1 mps 706 mmHg 89%
21:00 +24°C° 1.7 mm 1 mps 707 mmHg 91%
22:00 +24°C° 1.8 mm 1 mps 707 mmHg 92%
23:00 +23°C° 1.8 mm 1 mps 707 mmHg 93%
Mostrar más

Necesitamos Su Consentimiento

Meteoprog y nuestros Proveedores de Servicios pueden almacenar y acceder a sus datos personales como cookies, identificadores de dispositivo u otras tecnologías similares de su dispositivo y procesar dichos datos para personalizar contenido y anuncios, además de ofrecer funciones de redes sociales y analizar el tráfico.

  • Almacenar y/o acceder a información en su dispositivo

    Se puede almacenar o acceder a cookies, identificadores de dispositivo u otra información de su dispositivo para los fines anteriormente indicados.

  • Anuncios y contenido personalizados, medición de anuncios y contenido, percepciones del público, y desarrollo de productos

    Los anuncios y el contenido pueden personalizarse en base a su perfil. Se pueden añadir más datos para personalizar mejor los anuncios y contenidos. Se puede medir el rendimiento de los anuncios y contenidos. Se puede obtener la percepción sobre el público que ha visto los anuncios y contenidos. Dichos datos pueden usarse para desarrollar o mejorar la experiencia del usuario, sistemas y software.

Al hacer clic en ‘Estoy De Acuerdo’ usted permitirá el uso de las cookies, identificadores de dispositivo, balizas web u otras tecnologías similares indicadas. Su configuración puede cambiarse desde el navegador de su dispositivo.

Para ciertos fines, los intereses legítimos pueden ser considerados por encima del consentimiento. Puede leer más sobre ello en nuestra Política de Privacidad y Cookies.